Погода в Мельничном

Россия / Приморский край     45°26′04″N   135°31′10″E
темп.,
°C
ветер,
м/с
пор.,
м/с
влажн.,
%
обл.,
%
осадки,
мм/ч
давл.,
гПа
погр.,
м
23 января, сб
сб2301:00−25з11920 0.0 103020
04:00−25зсз11890 0.0 103020
07:00−24сз119014 0.0 103120
10:00−21юз009213 0.0 103137
13:00−11зюз12710 0.0 1030441
16:00−12сз12720 0.0 1029586
19:00−17вюв11904 0.0 102920
22:00−20юв11930 0.0 103020
24 января, вс
вс2401:00−19ююв12930 0.0 102822
04:00−18ююв11850 0.0 102720
07:00−20ююв11810 0.0 102820
10:00−15ююв11740 0.0 102929
13:00−5сз12600 0.0 1027361
16:00−5сз23810 0.0 1024409
19:00−12ссз12900 0.0 102921
22:00−15сз01900 0.0 103020
25 января, пн
пн2501:00−16сз119758 0.0 103120
04:00−17сз119833 0.0 103220
07:00−18сз01986 0.0 103320
10:00−13ююв11801 0.0 103243
13:00−6сз117211 0.0 1032389
16:00−3вюв00685 0.0 1029299
19:00−10вюв12840 0.0 102921
22:00−14юв22910 0.0 103124
26 января, вт
вт2601:00−15юв229825 0.0 103044
04:00−13юв2399100 0.0 102580
07:00−12юв2397100 0.0 1023113
10:00−10вюв2394100 1.3 1024172
13:00−6юв3693100 1.7 1020504
16:00−3ююв2394100 2.3 1015274
19:00−4ю229895 1.0 101447
22:00−7ююв2298100 4.9 101494
27 января, ср
ср2701:00−9сз4109497 0.5 1015757
04:00−12сз389699 2.5 1015659
07:00−19зсз289839 0.0 1017230
10:00−16зсз4119068 0.1 1018895
13:00−16зсз7137993 0.0 10181587
16:00−15з7148167 0.1 10181616
19:00−19зсз31297100 0.1 10211190
22:00−20зсз31398100 0.4 10221169